User: anonymous   Login
Location: Dompnac
(44.5644°N, 4.1026°E)
Time: 17:58:04
(UTC+00:00)
Language:

Cosmos 1867 - Orbit

View from above orbital plane
View from above orbital plane
View from above satellite
View from above satellite

Ground track
Ground track

The orbit data is extracted from the following two-line orbital elements,

1 18187U 87060A   21169.21257816 -.00000070  00000-0  11346-4 0  9994
2 18187  65.0111  97.0713 0020061 277.7445  82.1362 14.31123274772986
Epoch (UTC): 18 June 2021 05:06:06
Eccentricity: 0.0020061
inclination: 65.0111°
perigee height: 773 km
apogee height: 802 km
right ascension of ascending node: 97.0713°
argument of perigee: 277.7445°
revolutions per day: 14.31123274
mean anomaly at epoch: 82.1362°
orbit number at epoch: 77298

The dashed part of the orbit path shows where the satellite is in the earth's shadow,  

DLR